Weather History for Dothan, AL

Change the Weather History Date:

Friday, October 5, 2012

  Actual Average Record
Temperature  
Mean Temperature 72 °F 71 °F  
Max Temperature 79 °F 83 °F 98 °F (1954)
Min Temperature 65 °F 59 °F 44 °F (2010)
Degree Days  
Heating Degree Days 0 0  
Month to date heating degree days 0 0  
Since 1 July heating degree days 0 2  
Cooling Degree Days 7 6  
Month to date cooling degree days 33 35  
Year to date cooling degree days 2514 2263  
Growing Degree Days 21 (Base 50)    
Moisture  
Dew Point 67 °F    
Average Humidity 93    
Maximum Humidity 100    
Minimum Humidity 78    
Precipitation  
Precipitation 0.34 in 0.12 in 0.55 in (1964)
Month to date precipitation 1.54 0.52  
Year to date precipitation 35.45 42.50  
Sea Level Pressure  
Sea Level Pressure 30.15 in    
Wind  
Wind Speed 2 mph (ENE)    
Max Wind Speed 8 mph    
Max Gust Speed -    
Visibility 5 miles    
Events Fog , Rain    
T = Trace of Precipitation, MM = Missing Value Source: NWS Daily Summary

Daily Weather History Graph

Daily Weather History Graph

Search for Another Location

Airport:

Trip Planner

Search our weather history database for the weather conditions in past years. The results will help you decide how hot, cold, wet, or windy it might be!

Date:

Astronomy

Oct. 05, 2012 Rise Set
Actual Time 6:38 AM CDT 6:21 PM CDT
Civil Twilight 6:14 AM CDT 6:45 PM CDT
Nautical Twilight 5:45 AM CDT 7:13 PM CDT
Astronomical Twilight 5:17 AM CDT 7:41 PM CDT
Moon 10:01 PM CDT (10/5) 11:27 AM CDT (10/5)
Length of Visible Light 12h 31m
Length of Day
11h 42m
Waning Gibbous, 74% of the Moon is Illuminated
Oct 5
Waning Gibbous
Oct 8
Last Quarter
Oct 15
New
Oct 21
First Quarter
Oct 29
Full

Hourly Weather History & Observations

Time (CDT) Temp. Dew Point Humidity Pressure Visibility Wind Dir Wind Speed Gust Speed Precip Events Conditions
12:09 AM 66.2 °F 64.4 °F 94% 30.21 in 9.0 mi Calm Calm - N/A   Scattered Clouds
12:18 AM 66.2 °F 64.4 °F 94% 30.20 in 9.0 mi Calm Calm - N/A   Mostly Cloudy
12:40 AM 66.2 °F 64.4 °F 94% 30.20 in 0.8 mi NNE 3.5 mph - N/A   Overcast
12:53 AM 66.0 °F 64.9 °F 96% 30.18 in 0.5 mi Calm Calm - N/A Fog Fog
1:11 AM 66.2 °F 64.4 °F 94% 30.20 in 0.2 mi Calm Calm - N/A Fog Fog
1:53 AM 66.0 °F 64.9 °F 96% 30.17 in 0.2 mi Calm Calm - N/A Fog Fog
2:21 AM 64.4 °F 64.4 °F 100% 30.18 in 0.5 mi Calm Calm - N/A Fog Fog
3:53 AM 64.9 °F 64.0 °F 97% 30.16 in 0.2 mi Calm Calm - N/A Fog Fog
4:51 AM 64.4 °F 64.4 °F 100% 30.18 in 0.5 mi NNE 3.5 mph - N/A Fog Fog
4:53 AM 64.9 °F 64.9 °F 100% 30.16 in 0.5 mi NNE 4.6 mph - N/A Fog Fog
5:17 AM 64.4 °F 64.4 °F 100% 30.18 in 1.2 mi NNE 3.5 mph - N/A   Overcast
5:26 AM 66.2 °F 64.4 °F 94% 30.18 in 3.0 mi NNE 4.6 mph - N/A   Overcast
5:53 AM 66.0 °F 64.9 °F 96% 30.17 in 5.0 mi NNE 4.6 mph - N/A   Overcast
6:53 AM 66.0 °F 64.9 °F 96% 30.18 in 4.0 mi NE 3.5 mph - N/A   Overcast
7:07 AM 66.2 °F 64.4 °F 94% 30.19 in 5.0 mi Calm Calm - N/A   Overcast
7:17 AM 66.2 °F 64.4 °F 94% 30.19 in 5.0 mi Calm Calm - N/A   Overcast
7:41 AM 66.2 °F 64.4 °F 94% 30.19 in 4.0 mi Calm Calm - 0.00 in   Overcast
7:50 AM 66.2 °F 66.2 °F 100% 30.19 in 5.0 mi ENE 4.6 mph - 0.00 in   Overcast
7:53 AM 66.9 °F 66.0 °F 97% 30.18 in 5.0 mi ENE 4.6 mph - 0.00 in   Overcast
8:00 AM 66.2 °F 66.2 °F 100% 30.19 in 5.0 mi NE 4.6 mph - N/A   Overcast
8:08 AM 66.2 °F 66.2 °F 100% 30.19 in 5.0 mi ENE 4.6 mph - N/A   Overcast
8:53 AM 68.0 °F 66.9 °F 96% 30.18 in 7.0 mi NE 4.6 mph - N/A   Overcast
9:28 AM 69.8 °F 68.0 °F 94% 30.20 in 7.0 mi NE 8.1 mph - N/A   Overcast
9:49 AM 69.8 °F 68.0 °F 94% 30.20 in 3.0 mi NE 5.8 mph - N/A   Overcast
9:53 AM 70.0 °F 68.0 °F 93% 30.19 in 3.0 mi NE 4.6 mph - N/A   Overcast
10:53 AM 69.1 °F 68.0 °F 96% 30.18 in 1.8 mi NNE 4.6 mph - 0.21 in Rain Light Rain
11:20 AM 69.8 °F 68.0 °F 94% 30.19 in 3.0 mi Calm Calm - 0.12 in Rain Rain
11:53 AM 71.1 °F 69.1 °F 93% 30.17 in 5.0 mi NNE 3.5 mph - 0.13 in Rain Light Rain
12:53 PM 73.0 °F 70.0 °F 90% 30.14 in 5.0 mi East 4.6 mph - 0.00 in   Overcast
1:00 PM 73.4 °F 69.8 °F 88% 30.15 in 10.0 mi NE 5.8 mph - N/A   Overcast
1:53 PM 75.0 °F 71.1 °F 87% 30.12 in 10.0 mi East 3.5 mph - N/A   Overcast
2:53 PM 77.0 °F 71.1 °F 82% 30.08 in 10.0 mi East 5.8 mph - N/A   Overcast
3:31 PM 78.8 °F 71.6 °F 78% 30.08 in 10.0 mi ENE 4.6 mph - N/A   Overcast
3:53 PM 78.1 °F 71.1 °F 79% 30.06 in 10.0 mi East 5.8 mph - N/A   Scattered Clouds
4:53 PM 77.0 °F 70.0 °F 79% 30.04 in 10.0 mi East 4.6 mph - N/A   Partly Cloudy
5:53 PM 75.9 °F 70.0 °F 82% 30.05 in 10.0 mi ESE 4.6 mph - N/A   Clear
6:53 PM 73.0 °F 71.1 °F 93% 30.05 in 10.0 mi Calm Calm - N/A   Overcast
7:53 PM 72.0 °F 70.0 °F 93% 30.06 in 10.0 mi ESE 4.6 mph - N/A   Clear
8:53 PM 72.0 °F 69.1 °F 91% 30.07 in 10.0 mi Calm Calm - N/A   Partly Cloudy
9:53 PM 71.1 °F 69.1 °F 93% 30.07 in 10.0 mi East 3.5 mph - N/A   Clear
10:53 PM 70.0 °F 68.0 °F 93% 30.07 in 6.0 mi Calm Calm - N/A   Partly Cloudy
11:01 PM 69.8 °F 68.0 °F 94% 30.08 in 1.5 mi Calm Calm - N/A   Mostly Cloudy
11:53 PM 71.1 °F 69.1 °F 93% 30.06 in 7.0 mi Calm Calm - N/A   Overcast